Retour au catalogue

SL-8 DEB

ActifLEO
NORAD 21179·DEBRIS·🇷🇺 Russia

Lancé Feb 12, 1991 depuis Plesetsk Cosmodrome

Loading…

Prochains Passages (prochaines 24 heures)

TLE

FraisSource: Space-Track

Époque: Sep 14, 2026, 09:50 UTC

1 21179U 91009AS  26257.41007317 -.00000009  00000-0  50652-4 0  9996
2 21179  73.9908 144.5987 0121862   6.3109 167.8087 12.16221879580071

Suivez SL-8 DEB en temps réel avec AllMySat

Download on the App Store